KOWX

Details ICAO KOWX
Name PUTNAM CO
Region United States
Timezone America/New_York (UTC-4.0)
Plans Departing 1
Arriving 0
Stats Elevation 763 ft / 233 m (AMSL)
Location 41.035581° -83.982034°
Runways 1
Magnetic Variation 6.612° W
Sunrise 2018-05-20 10:14:59 UTC / 2018-05-20 06:14:59 Local
Sunset 2018-05-21 00:52:47 UTC / 2018-05-20 20:52:47 Local
Advertisement - Login to hide

Runways

ID Width Length Bearing (true) Bearing (mag) Surface Threshold Offset Overrun Length
09 65 ft / 20 m 4,416 ft / 1,346 m 89.71° 96.32° Asphalt 0 ft / 0 m 0 ft / 0 m
27 65 ft / 20 m 4,416 ft / 1,346 m 269.72° 276.33° Asphalt 0 ft / 0 m 0 ft / 0 m

Map

Weather


0- 5 10 15 20 25 30 35+ Temperature / ° C

Clouds and Precipitation
Forecast for 2018-05-20 12:00 UTC. Updated 3 hours ago

Ground ~20,000 ft ~40,000 ft Winds

METAR

KOWX 201355Z AUTO 00000KT 10SM OVC018 16/12 A3014 RMK AO1

TAF

Not found

Frequencies

Recorded 120.52 MHz AWOS 3
Approach 120.80 MHz TOLEDO APP/DEP
Unicom 122.70 MHz CTAF/UNICOM
Warning: Do not use this data for real-world aviation or navigation. No guarantee of current accuracy is given.